Location: Ch�risy
(50.2331°N, 2.9131°E)
Time: 08:24:23
(UTC+00:00)

Lacrosse 5 - Visible Passes

Search period start: 11 May 2021 00:00
Search period end: 21 May 2021 00:00
Orbit: 718 x 721 km, 57.0° (Epoch: 02 April)

Date Brightness Start Highest point End Pass type
(mag) Time Alt. Az. Time Alt. Az. Time Alt. Az.
11 May 2.8 00:46:25 31° SE 00:47:00 32° SE 00:51:29 10° ENE visible
11 May 2.0 02:25:36 16° WSW 02:29:41 74° NNW 02:34:48 10° ENE visible
11 May 3.6 23:54:51 19° ESE 23:54:51 19° ESE 23:57:45 10° E visible
12 May 1.8 01:34:01 31° SW 01:36:30 78° SE 01:41:37 10° ENE visible
12 May 2.8 03:14:56 10° W 03:19:50 45° NNW 03:24:44 10° ENE visible
13 May 2.1 00:42:24 43° S 00:43:27 51° SE 00:48:23 10° ENE visible
13 May 2.4 02:21:34 11° W 02:26:28 55° NNW 02:31:29 10° ENE visible
13 May 2.8 23:50:43 31° SE 23:50:43 31° SE 23:54:59 10° ENE visible
14 May 2.0 01:29:52 22° WSW 01:33:11 74° NNW 01:38:18 10° ENE visible
14 May 3.1 03:11:57 10° WNW 03:16:45 40° N 03:21:33 10° ENE visible
14 May 3.6 22:58:57 18° ESE 22:58:57 18° ESE 23:01:15 10° E visible
15 May 1.8 00:38:07 39° SW 00:40:01 77° SE 00:45:07 10° ENE visible
15 May 2.9 02:18:26 10° W 02:23:20 45° NNW 02:28:14 10° ENE visible
15 May 2.0 23:46:15 46° SSE 23:46:57 50° SE 23:51:53 10° ENE visible
16 May 2.5 01:25:25 12° W 01:29:58 56° NNW 01:35:00 10° ENE visible
16 May 3.3 03:08:55 10° WNW 03:13:42 38° N 03:18:28 10° ENE visible
16 May 2.7 22:54:17 31° SE 22:54:17 31° SE 22:58:29 10° ENE visible
17 May 2.0 00:33:25 22° WSW 00:36:41 75° NNW 00:41:48 10° ENE visible
17 May 3.2 02:15:27 10° WNW 02:20:14 40° N 02:25:03 10° ENE visible
17 May 3.4 22:02:09 18° ESE 22:02:09 18° ESE 22:04:44 10° E visible
17 May 1.7 23:41:17 34° SW 23:43:31 77° SE 23:48:37 10° ENE visible
18 May 2.9 01:21:56 10° W 01:26:49 45° NNW 01:31:44 10° ENE visible
18 May 3.3 03:05:49 10° WNW 03:10:38 40° N 03:15:28 10° ENE visible
18 May 2.0 22:48:53 36° S 22:50:28 50° SE 22:55:23 10° ENE visible
19 May 2.5 00:28:27 10° W 00:33:28 56° NNW 00:38:29 10° ENE visible
19 May 3.3 02:12:25 10° WNW 02:17:12 38° N 02:21:58 10° ENE visible
19 May 2.6 21:56:04 26° SSE 21:57:31 31° SE 22:01:59 10° ENE visible
19 May 2.0 23:35:07 10° WSW 23:40:12 75° NNW 23:45:19 10° ENE visible
20 May 3.2 01:18:56 10° WNW 01:23:45 40° N 01:28:33 10° ENE visible
20 May 3.1 03:02:38 10° WNW 03:07:34 46° NNE 03:12:28 10° E visible
20 May 3.2 21:02:17 14° SSE 21:04:43 19° SE 21:08:13 10° E visible
20 May 1.7 22:41:56 10° SW 22:47:01 76° SE 22:52:08 10° ENE visible
